Theta_e
315 316 316 315 313 315 316 314 313 311 312 311 309 309 309 310 313 314 316 316 317 319 323 339 337 338 341 341 337 336 337 341 345 345 344 344 344 342 340 338 335 340 337 338
317 318 316 316 316 317 317 316 312 313 313 311 310 310 310 310 311 314 316 316 316 317 320 331 336 336 337 337 340 342 343 342 343 345 345 345 345 342 343 343 341 340 335 340
320 320 319 318 318 318 317 315 312 313 313 313 313 312 312 312 311 314 315 316 317 316 317 326 332 331 330 335 334 334 336 334 331 332 338 344 343 343 341 343 340 340 340 339
320 319 320 318 319 317 318 316 315 314 313 312 312 312 311 312 313 315 313 315 317 316 315 320 327 329 330 331 331 328 328 332 335 336 337 337 338 340 337 336 337 337 336 335
320 320 321 320 319 318 318 318 316 315 312 312 313 313 312 313 317 320 320 319 318 318 316 316 321 322 325 331 327 322 325 328 328 335 339 341 337 336 334 336 337 334 335 335
319 319 319 319 319 318 317 316 315 313 310 311 311 312 312 313 316 320 320 321 323 321 318 315 317 324 328 330 326 323 324 327 328 334 337 337 337 336 335 336 333 336 333 332
320 321 319 319 319 319 318 314 312 311 310 312 310 312 313 322 322 320 319 324 327 327 325 323 320 328 330 329 326 326 328 332 338 337 336 335 331 329 330 331 333 333 333 333
324 323 321 319 319 318 318 312 309 313 312 312 312 313 323 322 323 325 326 327 328 328 329 329 329 329 329 331 331 332 335 332 332 334 332 332 332 331 328 326 327 330 331 331
324 324 320 320 318 319 319 316 311 312 315 313 324 325 322 324 323 323 324 326 326 328 330 330 331 332 334 336 335 335 334 333 332 331 329 328 328 329 328 326 328 328 323 323
322 320 319 320 319 319 316 313 312 311 318 317 326 328 326 326 325 323 323 324 325 327 329 328 328 328 328 327 327 326 326 325 324 324 323 324 324 324 323 322 324 324 320 314
321 320 321 319 321 320 319 313 313 313 317 319 325 329 325 325 323 323 320 322 325 327 326 325 323 321 320 319 318 318 317 316 316 317 317 317 317 314 313 314 313 311 311 311
321 319 321 321 319 318 317 312 312 316 324 320 320 326 324 323 323 321 321 321 320 320 320 320 317 315 314 314 314 314 314 313 313 313 313 313 313 312 311 310 310 310 310 310
321 324 320 321 320 319 320 318 313 316 320 323 320 326 322 323 322 322 319 319 316 315 315 313 314 314 314 314 314 314 313 312 312 312 312 311 310 310 310 310 310 310 310 309
321 321 317 319 321 318 320 317 317 318 320 323 321 326 326 324 322 323 319 316 313 313 313 313 313 313 312 313 313 313 313 313 313 312 311 310 310 310 310 310 309 308 307 307
322 321 321 325 326 324 321 319 320 318 319 321 324 325 324 322 321 322 315 313 312 311 311 311 311 311 311 312 312 313 313 311 310 309 308 308 308 309 309 308 308 306 307 307
317 324 322 324 324 324 326 320 320 322 323 324 325 326 323 321 322 316 314 312 310 309 310 310 311 311 312 312 312 311 310 309 309 308 307 306 307 307 307 306 306 306 306 305
317 321 319 324 324 325 324 325 324 324 324 324 324 323 322 320 316 312 310 308 307 307 307 308 308 308 308 309 308 307 307 307 307 306 305 305 304 304 304 305 305 305 305 305
317 321 320 324 324 325 323 322 325 326 324 322 323 323 322 309 307 306 306 307 306 306 306 306 306 306 306 306 305 305 304 304 303 302 302 302 303 304 305 305 304 304 305 308
317 317 323 324 324 325 325 325 325 325 325 323 323 312 308 306 305 302 303 304 304 304 304 303 303 303 303 303 302 302 301 301 301 301 301 302 303 302 303 303 304 305 307 307
318 318 321 321 325 329 324 323 320 319 320 317 312 310 310 314 313 302 300 301 301 301 301 302 302 300 300 300 300 300 300 300 300 300 301 301 301 301 302 304 304 306 308 308
321 322 319 320 324 324 320 320 319 323 320 313 311 312 310 304 302 299 299 300 300 300 300 298 298 298 299 299 300 300 299 299 299 300 300 300 301 301 303 304 305 307 308 308
318 320 321 319 322 325 320 320 319 313 308 307 305 305 300 299 300 300 299 299 299 299 299 300 300 299 298 298 299 300 299 299 300 302 300 300 301 302 303 304 306 308 308 307
319 318 316 313 312 310 309 307 307 308 305 304 303 301 304 301 299 298 297 297 297 297 297 297 298 298 298 298 298 297 297 298 299 300 300 300 301 301 303 304 306 307 308 307
315 312 309 308 306 306 304 303 303 305 304 303 305 304 304 300 298 296 296 296 296 297 297 297 297 296 295 295 295 295 296 297 297 299 298 299 300 301 303 304 306 307 307 307
313 309 306 306 305 304 302 302 303 302 302 300 299 299 299 299 297 297 296 296 295 294 294 293 293 293 293 293 294 294 294 295 296 297 298 299 300 301 303 304 305 306 305 305
312 309 311 309 306 304 302 300 299 299 298 298 298 296 295 296 295 293 292 291 291 291 291 291 291 292 293 293 293 294 293 294 295 296 297 299 300 300 302 303 304 304 304 304
Wind_Speed
21 11 23 21 17 7 6 6 5 5 7 6 6 5 11 13 12 9 16 15 18 20 22 34 31 34 40 35 32 32 29 26 28 35 38 35 37 35 33 33 29 37 38 36
9 28 16 15 16 16 15 11 5 4 5 3 7 9 10 7 6 14 23 22 21 23 24 29 31 30 32 31 30 32 30 29 30 34 35 36 36 30 27 27 32 40 42 40
24 5 18 17 20 19 17 14 6 6 4 2 2 9 5 7 7 16 21 27 25 25 27 32 35 33 30 29 29 29 32 29 25 25 31 35 32 31 30 33 35 39 40 42
16 21 24 24 22 16 20 10 8 9 2 2 3 4 6 6 6 1 15 21 26 25 23 30 37 36 35 35 33 32 32 32 34 35 34 31 26 28 25 28 32 35 37 38
15 20 20 23 24 15 12 12 10 9 5 0 2 2 7 3 4 3 4 11 18 21 26 29 34 35 36 38 37 35 31 29 27 26 26 27 26 24 15 14 13 13 18 14
17 21 20 15 17 20 7 7 7 3 4 5 5 6 6 2 5 3 4 13 9 5 9 16 27 34 39 41 39 32 28 23 20 19 21 21 20 18 16 14 15 16 17 22
20 18 17 19 16 14 15 9 2 2 3 5 9 5 2 8 8 4 8 14 12 8 7 9 17 27 33 31 31 28 24 19 12 11 12 11 10 9 8 10 15 14 16 16
12 17 17 16 15 8 18 9 5 6 5 5 7 6 2 4 4 14 23 21 19 18 18 19 18 23 27 27 25 24 21 18 14 12 9 6 5 6 3 4 10 10 14 16
7 5 16 14 8 19 10 13 9 4 1 5 6 3 4 5 10 13 18 24 22 25 27 29 28 29 30 29 26 23 20 19 15 10 7 5 4 4 5 6 7 9 9 7
4 4 8 23 18 13 10 10 7 2 4 4 1 4 5 2 7 9 11 18 23 30 36 37 37 35 31 28 24 19 17 14 12 9 8 7 4 1 2 4 8 11 9 10
5 2 3 7 7 21 8 8 4 7 2 5 4 2 4 4 4 13 10 20 28 31 30 30 30 29 28 25 23 22 20 18 16 13 9 6 5 5 6 5 5 4 7 10
8 3 3 5 5 13 5 6 6 5 3 3 4 2 1 4 3 9 16 26 31 33 33 33 32 31 30 28 24 21 18 15 13 10 7 6 5 5 4 6 6 9 12 16
11 4 4 3 4 1 5 5 6 6 4 4 6 3 3 5 5 11 20 24 30 33 34 35 32 28 24 21 18 14 11 9 8 8 7 7 5 5 6 9 12 14 17 19
10 3 3 5 7 4 5 6 11 7 4 5 3 9 7 9 9 9 20 28 29 35 34 31 28 24 20 17 14 11 9 8 9 8 7 7 8 8 10 12 15 17 18 19
3 4 1 6 6 4 4 11 9 6 8 6 8 13 15 12 8 9 24 28 30 27 30 27 23 19 16 13 11 10 10 9 7 8 8 8 8 11 14 17 20 21 20 18
5 3 1 4 7 6 4 7 13 5 7 10 17 9 9 14 14 20 24 26 26 25 25 22 18 13 10 8 6 5 5 7 10 12 13 12 13 15 17 19 20 20 18 17
3 2 3 1 4 6 4 3 6 5 2 20 7 10 17 13 14 18 24 25 23 21 20 18 14 11 8 6 6 7 8 11 13 13 13 14 16 17 18 17 15 14 15 18
4 2 2 5 5 3 2 4 6 15 7 16 22 19 19 24 29 26 21 28 24 19 15 12 9 6 5 7 8 9 11 14 14 14 14 14 14 13 13 11 10 11 13 13
2 3 3 4 3 4 6 5 2 11 9 9 25 23 29 34 36 23 17 20 19 14 11 7 5 5 7 9 12 14 16 16 14 13 11 9 8 9 10 6 8 10 10 11
7 4 1 3 5 4 2 6 23 11 5 4 19 21 24 26 7 3 10 14 13 9 6 4 6 9 11 13 15 16 15 12 10 8 5 3 5 6 3 5 6 6 8 11
5 2 4 4 4 3 6 12 5 4 7 16 18 18 12 5 11 23 14 12 7 6 6 7 10 14 16 15 14 11 10 8 8 8 6 4 4 5 1 3 3 5 8 12
3 3 2 3 4 5 1 7 4 13 20 27 20 27 35 32 26 19 11 7 4 5 8 11 13 13 13 12 11 10 10 9 9 7 7 5 4 5 3 0 2 4 8 11
2 1 4 6 2 3 20 23 25 34 32 25 31 29 33 29 21 14 10 7 7 8 10 11 12 12 12 12 10 11 10 9 9 7 7 5 4 3 5 1 2 4 8 11
4 2 6 4 9 17 30 29 31 34 37 32 31 28 23 24 16 14 12 11 11 12 12 12 12 13 13 12 12 11 11 11 11 7 5 4 3 4 4 0 2 5 6 9
2 4 9 18 16 31 27 32 39 36 34 33 28 25 24 21 18 15 15 14 13 13 13 12 12 12 11 11 9 9 11 12 9 6 3 3 2 4 3 2 2 6 5 7
7 5 4 8 14 26 20 26 33 37 33 30 30 27 22 19 19 16 16 13 12 11 10 10 10 10 9 9 9 9 12 12 10 8 5 1 1 3 4 4 3 1 1 6
Wind_Direction
185 199 207 196 201 184 218 226 210 190 239 201 244 231 256 260 250 236 239 227 215 212 220 211 214 218 221 227 229 229 230 226 221 219 221 229 226 236 254 239 230 227 236 240
168 218 201 198 197 206 229 237 213 269 264 175 278 268 257 261 233 235 243 238 219 213 209 211 215 220 216 215 218 219 223 226 225 226 235 235 243 257 246 234 239 242 241 235
200 211 191 199 199 202 213 216 167 200 11 275 356 305 295 274 225 242 253 253 248 215 211 209 210 212 219 221 216 212 216 220 224 229 237 240 246 249 250 250 252 250 244 247
221 232 187 193 211 191 213 177 193 233 123 217 115 271 304 260 230 208 249 255 255 245 222 213 212 212 217 213 215 208 215 222 226 229 230 230 239 252 262 267 262 261 264 266
200 184 209 203 202 201 210 178 195 222 176 304 244 42 271 301 116 204 250 252 249 248 242 224 210 216 219 213 209 210 210 214 219 223 226 235 237 238 234 252 264 263 246 268
207 185 204 211 203 201 137 161 200 169 117 241 205 159 281 357 314 201 85 37 21 304 256 227 216 216 213 212 208 207 210 215 214 215 219 223 235 230 231 257 274 274 257 247
197 217 193 187 188 191 177 155 174 195 191 211 157 151 240 309 304 310 98 65 60 70 98 141 177 197 202 197 202 203 207 201 196 198 206 212 226 245 255 260 281 272 266 252
193 208 208 187 202 169 190 154 163 170 152 158 143 198 247 311 21 75 90 92 91 94 106 111 127 154 164 166 169 173 173 168 170 172 169 159 140 118 89 344 318 311 274 259
159 240 193 213 188 170 186 197 200 66 286 110 145 114 106 49 52 62 74 82 85 102 107 109 117 123 128 128 128 134 138 131 123 104 84 65 47 51 33 327 283 243 236 229
174 162 229 204 216 236 167 167 178 120 178 126 156 128 147 101 91 87 84 91 94 104 105 106 107 108 110 112 113 116 119 118 112 113 103 94 99 117 238 224 235 237 256 264
198 145 224 186 157 206 205 186 163 136 148 148 133 187 167 169 152 129 121 113 113 110 107 108 109 109 109 111 109 104 102 101 97 93 87 78 49 28 4 329 287 283 277 284
189 165 134 158 110 175 145 198 157 155 210 55 116 231 99 153 132 134 123 123 119 118 118 119 117 116 112 108 106 101 96 90 85 78 60 44 22 357 323 311 305 303 303 301
173 212 99 91 79 121 149 188 136 112 108 173 118 184 154 135 138 125 126 124 119 121 123 119 117 113 111 108 103 95 86 74 54 29 10 360 347 337 327 320 321 317 313 313
139 95 142 152 152 145 155 154 173 134 118 151 148 143 171 178 160 128 134 128 121 123 124 121 120 120 118 112 103 95 74 37 12 351 345 340 335 330 324 317 317 317 318 319
99 128 100 99 84 136 150 148 152 135 147 134 172 155 181 158 148 128 127 120 116 114 122 120 117 114 106 96 74 45 20 3 354 341 338 332 315 309 306 306 310 315 317 319
0 89 59 33 41 44 71 165 157 112 114 81 120 88 129 118 132 121 118 115 109 111 122 119 116 113 101 83 58 21 350 334 330 327 326 316 304 302 304 310 314 318 323 328
54 52 75 287 16 360 89 334 107 98 143 138 145 157 128 118 92 100 104 103 102 112 116 112 105 96 78 50 24 352 342 327 317 313 304 299 300 305 311 315 318 323 332 336
132 97 82 138 91 177 313 256 118 92 82 105 113 131 121 105 90 86 102 117 112 112 107 100 83 58 30 357 331 325 319 316 313 309 305 304 305 308 310 319 332 338 348 360
113 116 107 137 113 101 91 146 121 117 58 122 122 116 118 112 93 63 88 106 108 106 95 83 56 9 343 323 323 321 321 319 315 308 305 309 311 319 338 11 5 357 3 0
159 237 205 106 109 184 129 111 116 89 69 138 123 136 143 144 121 119 108 105 102 97 81 23 338 325 318 321 324 324 323 323 321 322 326 321 348 342 11 33 10 355 5 9
162 174 101 89 97 51 149 136 294 112 165 127 139 136 117 81 102 133 125 106 88 53 15 347 332 334 335 332 333 334 340 342 344 332 318 311 323 320 163 19 338 5 17 12
118 108 89 91 100 134 36 331 156 132 105 114 107 115 106 113 117 119 113 91 51 1 341 333 335 339 347 350 351 357 357 351 332 319 308 302 296 300 194 311 346 13 15 3
54 350 99 49 36 49 74 93 101 117 115 116 121 120 127 123 120 117 102 74 44 26 16 9 4 5 7 7 0 359 355 352 342 330 306 294 286 274 201 220 354 18 31 356
72 40 100 91 48 84 96 91 95 113 116 121 121 122 124 118 115 106 91 72 60 46 35 31 30 27 22 15 9 360 352 342 339 327 303 280 283 195 195 280 26 39 29 356
35 89 100 97 101 84 74 94 110 109 113 114 113 113 113 117 108 102 90 77 66 56 47 41 40 33 19 10 10 5 355 349 355 347 320 265 244 185 177 172 101 75 40 354
7 127 112 117 93 110 106 105 116 115 113 114 113 110 106 105 106 103 93 83 71 63 48 45 36 31 19 22 19 14 9 11 9 4 357 333 224 195 183 161 178 111 280 310